Flag Weather past 2 weeks in Schwerin, Mecklenburg-Western Pomerania, Germany

Now
36 °F

Fog.


Feels Like: 33 °F
Forecast: 27 / 36 °F
Wind: 5 mph from Southeast

Location: Schwerin

Current Time: Nov 27, 2014 at 6:42:38 PM

Latest Report: Nov 27, 2014 at 6:00 PM


Visibility: 3 mi

Pressure: 30.00 "Hg

Humidity: 85%

Dew point: 33 °F

Location of SchwerinLocation

Historic Weather in Schwerin — Graph

°F

Schwerin temperature yesterday

Maximum temperature yesterday: 43 °F (at 1:00 PM)
Minimum temperature yesterday: 35 °F (at 12:00 AM)
Average temperature yesterday: 39 °F

Past Weeks' High & Low Weather Summary

 TemperatureHumidityPressure
High53 °F (Nov 14, 2:00 PM)100% (Nov 13, 12:00 AM)30.38 "Hg (Nov 13, 12:00 AM)
Low33 °F (Nov 22, 1:00 AM)72% (Nov 27, 2:00 PM)29.59 "Hg (Nov 16, 3:00 PM)
Average44 °F91%30.06 "Hg
* Reported Nov 12 5:00 PM — Nov 27 5:00 PM, Schwerin, Weather by CustomWeather, © 2014

Note: Actual official high and low records may vary slightly from our data, if they occured in-between our weather recording intervals... More about our weather records

Advertising

Schwerin weather history for previous 24 hours

 ConditionsComfort  
Time TempWeatherWind HumidityBarometerVisibility
5:00 PM
Nov 27
37 °FFog.5 mph83%30.00 "Hg3 mi
4:00 PM39 °FPassing clouds.5 mph78%29.99 "Hg4 mi
3:00 PM40 °FPartly sunny.6 mph72%29.99 "Hg5 mi
2:00 PM40 °FPartly sunny.7 mph72%29.99 "Hg4 mi
1:00 PM40 °FPassing clouds.6 mph73%30.01 "Hg4 mi
12:00 PM39 °FScattered clouds.6 mph76%30.01 "Hg4 mi
11:00 AM37 °FPassing clouds.6 mph79%30.03 "Hg3 mi
9:00 AM35 °FFog.6 mph87%30.05 "Hg3 mi
8:00 AM35 °FFog.6 mph88%30.04 "Hg3 mi
7:00 AM35 °FFog.6 mph91%30.04 "Hg2 mi
6:00 AM36 °FFog.7 mph92%30.04 "Hg2 mi
5:00 AM36 °FFog.6 mph91%30.05 "Hg2 mi
3:00 AM37 °FFog.6 mph88%30.08 "Hg3 mi
2:00 AM38 °FFog.5 mph86%30.09 "Hg3 mi
1:00 AM38 °FFog.5 mph86%30.11 "Hg3 mi
12:00 AM38 °FFog.5 mph88%30.12 "Hg4 mi
11:00 PM
Nov 26
38 °FFog.5 mph88%30.14 "Hg4 mi
9:00 PM38 °FPassing clouds.5 mph87%30.15 "Hg6 mi
8:00 PM38 °FPassing clouds.5 mph88%30.16 "Hg5 mi
7:00 PM38 °FPassing clouds.5 mph86%30.17 "Hg6 mi
6:00 PM38 °FPassing clouds.5 mph86%30.18 "Hg5 mi
Weather by CustomWeather, © 2014

See weather overviewHow to use our weather pages